User: anonymous   Login
Location: Cantarrana
(10.3575°N, 66.9340°W)
Time: 03:25:32
(UTC+00:00)
Language:

SL-16 R/B - Orbit

View from above orbital plane
View from above orbital plane
View from above satellite
View from above satellite

Ground track
Ground track

The orbit data is extracted from the following two-line orbital elements,

1 31793U 07029B   22144.63682238  .00000176  00000-0  11689-3 0  9994
2 31793  70.9764 202.8959 0002706 276.9859 196.0296 14.14477658769499
Epoch (UTC): 24 May 2022 15:17:01
Eccentricity: 0.0002706
inclination: 70.9764°
perigee height: 842 km
apogee height: 846 km
right ascension of ascending node: 202.8959°
argument of perigee: 276.9859°
revolutions per day: 14.14477658
mean anomaly at epoch: 196.0296°
orbit number at epoch: 76949

The dashed part of the orbit path shows where the satellite is in the earth's shadow,  

DLR